Location: Chemnitz
(49.5500°N, 11.5830°E)
Time: 05:45:52
(UTC+01:00)

ISS - Pass Details

Date: 06 January 2018
Orbit: 402 x 407 km, 51.6° (Epoch: 20 January)

Event Time Altitude Azimuth Distance (km) Brightness Sun altitude
Exits shadow 05:13:55 19° 70° (ENE) 1,034 -1.1 -27.4°
Drops below altitude 10° 05:15:00 10° 72° (ENE) 1,470 -0.1 -27.2°
Sets 05:17:06 0° 75° (ENE) 2,333 1.1 -26.9°
